Regional Weather Roundup
Issued by NWS

Home | Current Version | Previous Version | Graphics & Text | Print | Product List | Glossary On
Versions: 1 2 3 4 5 6 7 8 9 10 11 12 13 14 15 16 17 18 19 20 21 22 23 24 25 26 27 28 29 30 31 32 33 34 35 36 37 38 39 40 41 42 43 44 45 46 47 48 49 50
000
ASUS43 KTOP 060659
RWRKS

WEATHER ROUNDUP FOR KANSAS
NATIONAL WEATHER SERVICE GOODLAND KS
100 AM CST SAT FEB 06 2016

NOTE:  "FAIR" INDICATES FEW OR NO CLOUDS BELOW 12,000 FEET WITH NO
SIGNIFICANT WEATHER AND/OR OBSTRUCTIONS TO VISIBILITY.

KSZ001>006-013>018-027>032-041>047-060800-
NORTHWEST KANSAS

CITY           SKY/WX    TMP DP  RH WIND       PRES   REMARKS
GOODLAND       CLOUDY    16   9  74 W10       30.29S WCI   4
HAYS           CLEAR     25  14  63 NW9       30.30S
HILL CITY      CLEAR     24  18  77 NW8       30.31S
RUSSELL        CLEAR     27  23  85 NW10      30.28S WCI  17
$$

KSZ061>065-074>080-084>089-060800-
SOUTHWEST KANSAS

CITY           SKY/WX    TMP DP  RH WIND       PRES   REMARKS
DODGE CITY     CLEAR     25  19  78 NW7       30.31R
ELKHART          N/A     25  13  60 W12         N/A  WCI  14
GARDEN CITY    CLEAR     23  18  81 NW9       30.31R
GREAT BEND     CLEAR     28  19  69 NW8       30.31R
LIBERAL        CLEAR     25  16  68 NW12      30.33R WCI  14
$$

KSZ066>073-081>083-090>101-060800-
SOUTHEAST KANSAS

CITY           SKY/WX    TMP DP  RH WIND       PRES   REMARKS
CHANUTE        PTCLDY    36  26  67 SW8       30.27R
COFFEYVILLE    PTCLDY    35  24  64 SE6       30.29S
HUTCHINSON     PTCLDY    31  26  82 NW8       30.29R
MEDICINE LODGE   N/A     30  25  81 NW6       30.30R
NEWTON         CLOUDY    32  21  64 CALM      30.29R
PARSONS        CLOUDY    39  25  57 S5        30.29S
WICHITA INTL   CLOUDY    35  26  69 NW6       30.28S
WICHITA JABRA  CLOUDY    34  27  75 NW7       30.27S
WINFIELD       CLOUDY    38  27  64 NW5       30.30S
$$

KSZ007>012-019>026-033>040-048>060-102>105-060800-
NORTHEAST KANSAS

CITY           SKY/WX    TMP DP  RH WIND       PRES   REMARKS
CONCORDIA      CLOUDY    30  26  85 NW6       30.28S
EMPORIA        PTCLDY    31  22  69 W7        30.25S
LAWRENCE       CLOUDY    28  25  88 W3        30.26S
MANHATTAN      CLEAR     27  24  89 CALM      30.28S
OLATHE IND     MOCLDY    35  25  66 SE6       30.25F
OLATHE EXE     CLOUDY    35  25  66 SE6       30.25F
SALINA         CLEAR     31  25  78 NW10      30.30R WCI  22
TOPEKA BILLARD PTCLDY    31  25  78 W5        30.26S
TOPEKA FORBES  CLOUDY    31  24  75 NW6       30.26R
$$



USA.gov is the U.S. government's official web portal to all federal, state and local government web resources and services.